Cortez, CO

11:09 AM MST on December 16, 2017 (GMT -0700)
Cortez Municipal

Weather History for KCEZ - February, 2013

Change the Weather History Date:

Sunday, February 17, 2013

  Actual Average Record
Temperature  
Mean Temperature 35 °F 32 °F  
Max Temperature 52 °F 46 °F 62 °F (2016)
Min Temperature 18 °F 19 °F 11 °F (2015)
Degree Days  
Heating Degree Days 30 33  
Month to date heating degree days 592 582  
Since 1 July heating degree days 4447 4387  
Cooling Degree Days 0 0  
Month to date cooling degree days 0 0  
Year to date cooling degree days 0 0  
Moisture  
Dew Point 17 °F    
Average Humidity 49    
Maximum Humidity 77    
Minimum Humidity 21    
Precipitation  
Precipitation 0.00 in 0.03 in 0.29 in (2000)
Month to date precipitation 0.33 0.52  
Year to date precipitation 1.95 1.53  
Sea Level Pressure  
Sea Level Pressure 29.93 in    
Wind  
Wind Speed 6 mph (East)    
Max Wind Speed 20 mph    
Max Gust Speed 29 mph    
Visibility 10 miles    
Events      
T = Trace of Precipitation, MM = Missing Value Source: NWS Daily Summary

Daily Weather History Graph

Daily Weather History Graph

Search for Another Location

Airport or City:

Trip Planner

Search our weather history database for the weather conditions in past years. The results will help you decide how hot, cold, wet, or windy it might be!

Date:

Astronomy

Feb. 17, 2013 Rise Set
Actual Time 7:00 AM MST 5:56 PM MST
Civil Twilight 6:34 AM MST 6:23 PM MST
Nautical Twilight 6:03 AM MST 6:53 PM MST
Astronomical Twilight 5:33 AM MST 7:24 PM MST
Moon 11:06 AM MST (2/17) 12:45 AM MST (2/17)
Length of Visible Light 11h 49m
Length of Day
10h 55m
Waxing Crescent, 49% of the Moon is Illuminated
Feb 17
Waxing Crescent
Feb 17
First Quarter
Feb 25
Full
Mar 4
Last Quarter
Mar 11
New

Hourly Weather History & Observations

Time (MST) Temp. Windchill Dew Point Humidity Pressure Visibility Wind Dir Wind Speed Gust Speed Precip Events Conditions
12:53 AM 21.9 °F 15.7 °F 14.0 °F 72% 30.16 in 10.0 mi East 4.6 mph - N/A   Clear
1:53 AM 21.9 °F 17.2 °F 15.1 °F 75% 30.14 in 10.0 mi East 3.5 mph - N/A   Clear
2:53 AM 19.0 °F 13.9 °F 14.0 °F 81% 30.13 in 10.0 mi East 3.5 mph - N/A   Clear
3:53 AM 19.0 °F 9.0 °F 12.9 °F 77% 30.10 in 10.0 mi NE 8.1 mph - N/A   Clear
4:53 AM 19.9 °F - 14.0 °F 78% 30.06 in 10.0 mi Calm Calm - N/A   Clear
5:53 AM 19.9 °F 14.9 °F 14.0 °F 78% 30.06 in 10.0 mi SE 3.5 mph - N/A   Clear
6:53 AM 21.0 °F 12.4 °F 12.9 °F 71% 30.09 in 10.0 mi East 6.9 mph - N/A   Clear
7:53 AM 21.0 °F 13.4 °F 14.0 °F 74% 30.08 in 10.0 mi ESE 5.8 mph - N/A   Clear
8:53 AM 28.0 °F - 15.1 °F 58% 30.04 in 10.0 mi Calm Calm - N/A   Clear
9:53 AM 36.0 °F 32.1 °F 17.1 °F 46% 29.98 in 10.0 mi ESE 4.6 mph - N/A   Clear
10:53 AM 41.0 °F 39.0 °F 16.0 °F 36% 29.94 in 10.0 mi ESE 3.5 mph - N/A   Clear
11:53 AM 43.0 °F - 19.9 °F 40% 29.89 in 10.0 mi North - - N/A   Clear
12:53 PM 48.0 °F - 19.0 °F 32% 29.84 in 10.0 mi SW 11.5 mph - N/A   Clear
1:53 PM 48.0 °F - 19.9 °F 33% 29.80 in 10.0 mi SSW 15.0 mph - N/A   Clear
2:53 PM 50.0 °F - 16.0 °F 26% 29.77 in 10.0 mi SSW 8.1 mph - N/A   Clear
3:53 PM 51.1 °F - 12.9 °F 22% 29.76 in 10.0 mi West 10.4 mph 16.1 mph N/A   Clear
4:53 PM 46.9 °F - 14.0 °F 27% 29.76 in 10.0 mi West 9.2 mph - N/A   Clear
5:53 PM 41.0 °F 39.0 °F 17.1 °F 38% 29.77 in 10.0 mi East 3.5 mph - N/A   Clear
6:53 PM 33.1 °F - 23.0 °F 66% 29.81 in 10.0 mi Calm Calm - N/A   Clear
7:53 PM 30.0 °F 25.2 °F 21.9 °F 72% 29.81 in 10.0 mi ENE 4.6 mph - N/A   Partly Cloudy
8:53 PM 30.0 °F 24.1 °F 21.0 °F 69% 29.78 in 10.0 mi ENE 5.8 mph - N/A   Mostly Cloudy
10:53 PM 37.9 °F 30.5 °F 19.0 °F 47% 29.77 in 10.0 mi North 11.5 mph 25.3 mph N/A   Mostly Cloudy
11:53 PM 37.0 °F 31.6 °F 19.9 °F 50% 29.80 in 10.0 mi NNW 6.9 mph - N/A   Overcast